Regional Weather Roundup
Issued by NWS

Home | Current Version | Previous Version | Text Only | Print | Product List | Glossary Off
Versions: 1 2 3 4 5 6 7 8 9 10 11 12 13 14 15 16 17 18 19 20 21 22 23 24 25 26 27 28 29 30 31 32 33 34 35 36 37 38 39 40 41 42 43 44 45 46 47 48 49 50

000
ASUS45 KABQ 031310
RWRNM
WEATHER ROUNDUP FOR NEW MEXICO
NATIONAL WEATHER SERVICE ALBUQUERQUE NM
600 AM MST TUE MAR 03 2015

NOTE: "FAIR" MEANS FEW OR NO CLOUDS BELOW 12,000 FEET AGL WITH NO
       SIGNIFICANT WEATHER OR OBSTRUCTIONS TO VISION.

      THIS PRODUCT IS RELEASED AS TWO VERSIONS.  ONE VERSION NEAR
      THE TOP OF THE HOUR CONTAINING PRELIMINARY DATA FROM ALBUQUERQUE
      AND OTHER STATIONS.  A FINAL VERSION WITH ADDITIONAL DATA IS
      ISSUED ABOUT 10 MINUTES AFTER THE HOUR.

NMZ501-503-504-510>518-031400-
NORTHWEST PLATEAU/NORTHCENTRAL MOUNTAINS

CITY           SKY/WX    TMP DP  RH WIND       PRES   REMARKS
FARMINGTON     CLEAR     29  26  89 NE6       29.90F WCI  23
LOS ALAMOS     MOCLDY    32  20  62 S3        29.92S
SANTA FE       CLOUDY    32  27  81 W6        29.91S WCI  26
TAOS           MOCLDY    27  18  69 SW7       29.93R WCI  19
ANGEL FIRE     FAIR      25  18  74 W22G32    29.86R WCI  11

$$
NMZ402-403-502-505>509-031400-
WESTCENTRAL MOUNTAINS/SOUTHWEST MOUNTAINS

CITY           SKY/WX    TMP DP  RH WIND       PRES   REMARKS
GALLUP         PTCLDY    30  26  85 SW5       29.92F WCI  25
GRANTS         MOCLDY    30  24  78 N6        29.93F WCI  24
SILVER CITY    LGT RAIN  41  37  87 NW8       29.94R

$$
NMZ407-409-411-412-031400-
SOUTHERN DESERTS

CITY           SKY/WX    TMP DP  RH WIND       PRES   REMARKS
LORDSBURG      LGT RAIN  41  39  93 W10       29.93S
DEMING         LGT RAIN  45  44  97 SW5       29.92R
LAS CRUCES     CLOUDY    47  46  94 W6        29.90F
HOLLOMAN AFB   LGT RAIN  50  48  93 CALM      29.88S
ALAMOGORDO     CLOUDY    50  48  93 S7        29.90S
T OR C         CLOUDY    48  39  71 N3        29.88S

$$
NMZ519>523-031400-
CENTRAL VALLEYS/CENTRAL HIGHLANDS

CITY           SKY/WX    TMP DP  RH WIND       PRES   REMARKS
ALBUQUERQUE    CLOUDY    40  32  73 CALM      29.93F
DOUBLE EAGLE   MOCLDY    37  28  70 N6        29.94S WCI  33
MORIARTY ARPT  CLOUDY    37  27  68 W12       29.92F WCI  29
CLINES CORNERS MOCLDY    31  26  82 W22       29.86F WCI  18
BELEN          CLOUDY    39  34  81 CALM      29.93S
SOCORRO          N/A     42  36  78 N5        29.92S

$$
NMZ524>526-539-540-031400-
SOUTHCENTRAL MOUNTAINS

CITY           SKY/WX    TMP DP  RH WIND       PRES   REMARKS
RUIDOSO        CLOUDY    39  36  87 CALM      29.92S

$$
NMZ527>531-031400-
NORTHEAST HIGHLANDS/NORTHEAST PLAINS

CITY           SKY/WX    TMP DP  RH WIND       PRES   REMARKS
LAS VEGAS      MOCLDY    34  20  56 W13       29.83F WCI  25
RATON          PTCLDY    36  16  44 W16G23    29.79R WCI  26
CLAYTON        PTCLDY    38  26  62 W16       29.79R WCI  29

$$
NMZ532>537-031400-
EASTCENTRAL PLAINS

CITY           SKY/WX    TMP DP  RH WIND       PRES   REMARKS
TUCUMCARI      CLOUDY    42  33  70 W12       29.84R
CANNON AFB     CLOUDY    34  34  99 W6        29.89R WCI  29
CLOVIS AIRPORT CLOUDY    34  34 100 SW8       29.89R WCI  27

$$
NMZ028-029-538-031400-
SOUTHEAST PLAINS

CITY           SKY/WX    TMP DP  RH WIND       PRES   REMARKS
ROSWELL        FOG       37  36  96 CALM      29.90R VSB 1/2
ARTESIA        CLOUDY    37  37 100 S7        29.91R FOG     WCI  32
CARLSBAD       FOG       39  37  92 SE7       29.88F VSB 1/2 WCI  34
HOBBS          FOG       37  37 100 S7        29.93R VSB 1/4 WCI  32


$$


USA.gov is the U.S. government's official web portal to all federal, state and local government web resources and services.